User: anonymous   Login
Location: C�mpuri de-Sus
(45.9500°N, 22.5500°E)
Time: 11:52:03
(UTC+00:00)
Language:

Cosmos 839 Rocket - Orbit

View from above orbital plane
View from above orbital plane
View from above satellite
View from above satellite

Ground track
Ground track

The orbit data is extracted from the following two-line orbital elements,

1  9013U 76067B   22273.10455800 -.00000022  00000-0  11128-3 0  9999
2  9013  65.8645 217.4155 0709417  36.2105 328.4821 12.35350187 85162
Epoch (UTC): 30 September 2022 02:30:33
Eccentricity: 0.0709417
inclination: 65.8645°
perigee height: 965 km
apogee height: 2087 km
right ascension of ascending node: 217.4155°
argument of perigee: 36.2105°
revolutions per day: 12.35350187
mean anomaly at epoch: 328.4821°
orbit number at epoch: 8516

The dashed part of the orbit path shows where the satellite is in the earth's shadow,  

DLR